Wetterdaten: Woche 14.01.08 - 20.01.08 (KW3)
Datum Zeit Temp. I. Temp. A. Feuchte A. Luftdruck Regen Wind
14.01.2008 00:00 21,8 C 1,9 C 93 % 1009 hPa 0,0 l/m 11,9 km/h (2 Bft)
14.01.2008 01:00 21,6 C 1,4 C 93 % 1009 hPa 0,0 l/m 5,5 km/h (1 Bft)
14.01.2008 02:00 21,6 C 1,2 C 94 % 1009 hPa 0,0 l/m 1,9 km/h (1 Bft)
14.01.2008 03:00 21,4 C 1,2 C 94 % 1009 hPa 0,0 l/m 0,7 km/h (0 Bft)
14.01.2008 04:00 21,3 C 1,2 C 95 % 1009 hPa 0,0 l/m 3,3 km/h (1 Bft)
14.01.2008 05:00 21,4 C 1,3 C 95 % 1008 hPa 0,0 l/m 9,5 km/h (2 Bft)
14.01.2008 06:00 21,6 C 1,3 C 96 % 1008 hPa 0,0 l/m 9,4 km/h (2 Bft)
14.01.2008 07:00 21,7 C 1,3 C 96 % 1008 hPa 0,0 l/m 7,1 km/h (2 Bft)
14.01.2008 08:00 21,4 C 1,2 C 96 % 1008 hPa 0,0 l/m 10,4 km/h (2 Bft)
14.01.2008 09:00 21,2 C 1,4 C 96 % 1009 hPa 0,0 l/m 10,3 km/h (2 Bft)
14.01.2008 10:00 21,1 C 1,5 C 96 % 1009 hPa 0,0 l/m 8,5 km/h (2 Bft)
14.01.2008 11:00 20,9 C 1,7 C 96 % 1009 hPa 0,0 l/m 1,6 km/h (1 Bft)
14.01.2008 12:00 20,6 C 1,9 C 95 % 1009 hPa 0,0 l/m 2,5 km/h (1 Bft)
14.01.2008 13:00 20,3 C 1,6 C 95 % 1008 hPa 0,0 l/m 2,9 km/h (1 Bft)
14.01.2008 14:00 20,2 C 1,4 C 95 % 1009 hPa 0,0 l/m 2,1 km/h (1 Bft)
14.01.2008 15:00 19,9 C 1,1 C 95 % 1009 hPa 0,0 l/m 2,1 km/h (1 Bft)
14.01.2008 16:00 19,8 C 0,7 C 95 % 1009 hPa 0,0 l/m 3,8 km/h (1 Bft)
14.01.2008 17:00 20,1 C 0,6 C 95 % 1010 hPa 0,0 l/m 0,3 km/h (0 Bft)
14.01.2008 18:00 20,2 C 0,5 C 95 % 1010 hPa 0,0 l/m 0,1 km/h (0 Bft)
14.01.2008 19:00 20,6 C 0,5 C 95 % 1010 hPa 0,0 l/m 1,3 km/h (1 Bft)
14.01.2008 20:00 20,8 C 0,3 C 95 % 1010 hPa 0,0 l/m 1,5 km/h (1 Bft)
14.01.2008 21:00 21,0 C 0,3 C 95 % 1010 hPa 0,0 l/m 3,6 km/h (1 Bft)
14.01.2008 22:00 20,8 C 0,1 C 95 % 1010 hPa 0,0 l/m 1,4 km/h (1 Bft)
14.01.2008 23:00 20,7 C 0,1 C 95 % 1010 hPa 0,0 l/m 1,2 km/h (1 Bft)
15.01.2008 00:00 20,6 C 0,0 C 95 % 1010 hPa 0,0 l/m 0,5 km/h (0 Bft)
15.01.2008 01:00 20,5 C 0,0 C 95 % 1010 hPa 0,0 l/m 1,5 km/h (1 Bft)
15.01.2008 02:00 20,5 C 0,1 C 95 % 1010 hPa 0,0 l/m 0,5 km/h (0 Bft)
15.01.2008 03:00 20,5 C 0,0 C 94 % 1009 hPa 0,0 l/m 3,6 km/h (1 Bft)
15.01.2008 04:00 20,4 C -0,2 C 95 % 1009 hPa 0,0 l/m 4,4 km/h (1 Bft)
15.01.2008 05:00 20,5 C -0,2 C 95 % 1010 hPa 0,0 l/m 4,5 km/h (1 Bft)
15.01.2008 06:00 20,7 C -0,2 C 95 % 1010 hPa 0,0 l/m 4,8 km/h (1 Bft)
15.01.2008 07:00 20,8 C -0,3 C 94 % 1010 hPa 0,0 l/m 6,2 km/h (2 Bft)
15.01.2008 08:00 20,6 C -0,4 C 95 % 1010 hPa 0,0 l/m 7,1 km/h (2 Bft)
15.01.2008 09:00 20,5 C -0,2 C 95 % 1010 hPa 0,0 l/m 9,7 km/h (2 Bft)
15.01.2008 10:00 20,5 C 0,2 C 95 % 1010 hPa 0,0 l/m 8,6 km/h (2 Bft)
15.01.2008 11:00 20,4 C 0,3 C 94 % 1009 hPa 0,0 l/m 11,8 km/h (2 Bft)
15.01.2008 12:00 20,5 C 0,4 C 94 % 1008 hPa 0,0 l/m 9,9 km/h (2 Bft)
15.01.2008 13:00 20,8 C 0,7 C 93 % 1007 hPa 0,0 l/m 7,8 km/h (2 Bft)
15.01.2008 14:00 20,9 C 0,9 C 93 % 1006 hPa 0,0 l/m 8,1 km/h (2 Bft)
15.01.2008 15:00 21,2 C 0,7 C 93 % 1006 hPa 0,0 l/m 9,5 km/h (2 Bft)
15.01.2008 16:00 21,2 C 0,4 C 94 % 1005 hPa 0,0 l/m 11,4 km/h (2 Bft)
15.01.2008 17:00 21,4 C -0,2 C 95 % 1004 hPa 0,0 l/m 16,7 km/h (3 Bft)
15.01.2008 18:00 21,4 C -0,2 C 95 % 1004 hPa 0,0 l/m 16,7 km/h (3 Bft)
15.01.2008 19:00 21,6 C 0,1 C 96 % 1003 hPa 0,0 l/m 18,5 km/h (3 Bft)
15.01.2008 20:00 21,7 C 0,3 C 97 % 1003 hPa 0,0 l/m 19,9 km/h (4 Bft)
15.01.2008 21:00 21,7 C 0,3 C 97 % 1002 hPa 0,0 l/m 18,4 km/h (3 Bft)
15.01.2008 22:00 21,5 C 0,4 C 97 % 1001 hPa 0,0 l/m 16,7 km/h (3 Bft)
15.01.2008 23:00 21,3 C 0,4 C 97 % 1000 hPa 0,0 l/m 18,1 km/h (3 Bft)
16.01.2008 00:00 21,2 C 0,6 C 96 % 999 hPa 0,0 l/m 15,8 km/h (3 Bft)
16.01.2008 01:00 21,1 C 0,5 C 96 % 998 hPa 0,0 l/m 15,2 km/h (3 Bft)
16.01.2008 02:00 21,0 C 0,4 C 96 % 997 hPa 0,0 l/m 13,0 km/h (3 Bft)
16.01.2008 03:00 20,9 C 0,2 C 95 % 997 hPa 0,0 l/m 10,0 km/h (2 Bft)
16.01.2008 04:00 20,9 C -0,1 C 95 % 997 hPa 0,0 l/m 10,6 km/h (2 Bft)
16.01.2008 05:00 21,1 C 0,1 C 96 % 997 hPa 0,0 l/m 6,4 km/h (2 Bft)
16.01.2008 06:00 21,5 C 0,2 C 96 % 997 hPa 0,0 l/m 3,2 km/h (1 Bft)
16.01.2008 07:00 21,4 C 0,3 C 95 % 997 hPa 0,0 l/m 2,8 km/h (1 Bft)
16.01.2008 08:00 21,1 C 0,3 C 95 % 998 hPa 0,0 l/m 1,1 km/h (1 Bft)
16.01.2008 09:00 21,0 C 0,3 C 95 % 998 hPa 0,0 l/m 1,0 km/h (0 Bft)
16.01.2008 10:00 21,0 C 0,6 C 95 % 998 hPa 0,0 l/m 3,7 km/h (1 Bft)
16.01.2008 11:00 20,9 C 1,0 C 94 % 998 hPa 0,0 l/m 3,3 km/h (1 Bft)
16.01.2008 12:00 20,9 C 1,1 C 94 % 997 hPa 0,0 l/m 2,9 km/h (1 Bft)
16.01.2008 13:00 21,3 C 1,2 C 94 % 997 hPa 0,0 l/m 0,4 km/h (0 Bft)
16.01.2008 14:00 21,2 C 1,2 C 94 % 998 hPa 0,0 l/m 2,1 km/h (1 Bft)
16.01.2008 15:00 21,6 C 1,6 C 93 % 998 hPa 0,0 l/m 0,0 km/h (0 Bft)
16.01.2008 16:00 21,6 C 1,5 C 93 % 999 hPa 0,0 l/m 0,9 km/h (0 Bft)
16.01.2008 17:00 21,7 C 1,0 C 93 % 999 hPa 0,0 l/m 1,3 km/h (1 Bft)
16.01.2008 18:00 21,7 C 0,9 C 94 % 1000 hPa 0,0 l/m 0,1 km/h (0 Bft)
16.01.2008 19:00 21,7 C 0,9 C 94 % 1001 hPa 0,0 l/m 1,9 km/h (1 Bft)
16.01.2008 20:00 16,8 C 0,9 C 94 % 1001 hPa 0,0 l/m 0,4 km/h (0 Bft)
16.01.2008 21:00 20,3 C 0,9 C 95 % 1002 hPa 0,3 l/m 1,9 km/h (1 Bft)
16.01.2008 22:00 20,6 C 1,1 C 94 % 1002 hPa 0,0 l/m 0,4 km/h (0 Bft)
16.01.2008 23:00 20,7 C 0,8 C 94 % 1003 hPa 0,0 l/m 0,9 km/h (0 Bft)
17.01.2008 00:00 20,7 C 0,7 C 95 % 1003 hPa 0,0 l/m 1,1 km/h (0 Bft)
17.01.2008 01:00 20,6 C 0,7 C 95 % 1003 hPa 0,0 l/m 0,1 km/h (0 Bft)
17.01.2008 02:00 20,6 C 0,7 C 95 % 1004 hPa 0,0 l/m 0,1 km/h (0 Bft)
17.01.2008 03:00 20,6 C 0,8 C 95 % 1005 hPa 0,3 l/m 0,0 km/h (0 Bft)
17.01.2008 04:00 20,6 C 0,9 C 95 % 1006 hPa 0,7 l/m 0,0 km/h (0 Bft)
17.01.2008 05:00 20,8 C 1,1 C 95 % 1006 hPa 0,3 l/m 0,0 km/h (0 Bft)
17.01.2008 06:00 21,2 C 1,1 C 95 % 1007 hPa 0,0 l/m 2,4 km/h (1 Bft)
17.01.2008 07:00 21,2 C 1,1 C 95 % 1008 hPa 0,7 l/m 1,3 km/h (1 Bft)
17.01.2008 08:00 21,1 C 1,2 C 95 % 1008 hPa 0,0 l/m 0,3 km/h (0 Bft)
17.01.2008 09:00 21,3 C 1,5 C 95 % 1009 hPa 0,0 l/m 0,5 km/h (0 Bft)
17.01.2008 10:00 21,4 C 2,0 C 95 % 1010 hPa 0,0 l/m 0,7 km/h (0 Bft)
17.01.2008 11:00 21,6 C 2,5 C 94 % 1010 hPa 0,0 l/m 1,8 km/h (1 Bft)
17.01.2008 12:00 21,6 C 3,3 C 94 % 1010 hPa 0,0 l/m 1,0 km/h (0 Bft)
17.01.2008 13:00 21,6 C 3,6 C 94 % 1010 hPa 0,0 l/m 1,1 km/h (1 Bft)
17.01.2008 14:00 21,7 C 3,8 C 94 % 1010 hPa 0,0 l/m 0,4 km/h (0 Bft)
17.01.2008 15:00 21,8 C 3,6 C 94 % 1010 hPa 0,0 l/m 2,9 km/h (1 Bft)
17.01.2008 16:00 21,8 C 3,0 C 95 % 1010 hPa 0,0 l/m 6,0 km/h (2 Bft)
17.01.2008 17:00 21,8 C 2,6 C 94 % 1010 hPa 0,0 l/m 6,1 km/h (2 Bft)
17.01.2008 18:00 21,9 C 1,5 C 95 % 1010 hPa 0,0 l/m 10,2 km/h (2 Bft)
17.01.2008 19:00 21,5 C 1,9 C 96 % 1010 hPa 0,0 l/m 5,9 km/h (2 Bft)
17.01.2008 20:00 22,0 C 1,7 C 97 % 1010 hPa 0,0 l/m 6,2 km/h (2 Bft)
17.01.2008 21:00 22,4 C 1,7 C 97 % 1009 hPa 0,0 l/m 7,6 km/h (2 Bft)
17.01.2008 22:00 22,1 C 1,7 C 97 % 1009 hPa 0,0 l/m 4,1 km/h (1 Bft)
17.01.2008 23:00 21,6 C 1,8 C 97 % 1009 hPa 0,0 l/m 4,0 km/h (1 Bft)
18.01.2008 00:00 21,6 C 1,5 C 97 % 1008 hPa 0,0 l/m 7,7 km/h (2 Bft)
18.01.2008 01:00 21,4 C 1,2 C 96 % 1007 hPa 0,0 l/m 9,8 km/h (2 Bft)
18.01.2008 02:00 21,3 C 1,0 C 97 % 1007 hPa 0,0 l/m 10,1 km/h (2 Bft)
18.01.2008 03:00 21,2 C 0,9 C 97 % 1008 hPa 0,0 l/m 9,6 km/h (2 Bft)
18.01.2008 04:00 21,2 C 1,0 C 97 % 1010 hPa 2,1 l/m 6,5 km/h (2 Bft)
18.01.2008 05:00 21,2 C 1,7 C 97 % 1010 hPa 1,0 l/m 6,4 km/h (2 Bft)
18.01.2008 06:00 21,6 C 1,3 C 96 % 1010 hPa 1,4 l/m 4,4 km/h (1 Bft)
18.01.2008 07:00 21,6 C 1,2 C 96 % 1011 hPa 0,0 l/m 1,1 km/h (1 Bft)
18.01.2008 08:00 21,3 C 1,3 C 96 % 1011 hPa 0,0 l/m 2,2 km/h (1 Bft)
18.01.2008 09:00 21,1 C 1,5 C 96 % 1012 hPa 0,0 l/m 0,4 km/h (0 Bft)
18.01.2008 10:00 21,0 C 2,4 C 96 % 1013 hPa 0,0 l/m 0,9 km/h (0 Bft)
18.01.2008 11:00 21,0 C 3,2 C 96 % 1014 hPa 0,0 l/m 2,6 km/h (1 Bft)
18.01.2008 12:00 21,2 C 3,5 C 96 % 1015 hPa 0,0 l/m 0,2 km/h (0 Bft)
18.01.2008 13:00 21,4 C 4,4 C 95 % 1015 hPa 0,7 l/m 7,6 km/h (2 Bft)
18.01.2008 14:00 21,3 C 5,4 C 94 % 1015 hPa 0,7 l/m 12,6 km/h (3 Bft)
18.01.2008 15:00 21,2 C 5,8 C 90 % 1016 hPa 0,3 l/m 20,6 km/h (4 Bft)
18.01.2008 16:00 21,6 C 5,5 C 90 % 1016 hPa 0,0 l/m 11,5 km/h (2 Bft)
18.01.2008 17:00 21,6 C 4,9 C 91 % 1017 hPa 0,0 l/m 5,1 km/h (1 Bft)
18.01.2008 18:00 21,8 C 4,1 C 93 % 1017 hPa 0,0 l/m 2,2 km/h (1 Bft)
18.01.2008 19:00 21,4 C 3,9 C 94 % 1017 hPa 0,0 l/m 0,0 km/h (0 Bft)
18.01.2008 20:00 21,2 C 3,7 C 95 % 1017 hPa 0,0 l/m 10,0 km/h (2 Bft)
18.01.2008 21:00 21,8 C 5,8 C 89 % 1018 hPa 0,0 l/m 17,2 km/h (3 Bft)
18.01.2008 22:00 21,7 C 5,5 C 91 % 1018 hPa 0,3 l/m 8,7 km/h (2 Bft)
18.01.2008 23:00 21,4 C 5,1 C 93 % 1018 hPa 0,3 l/m 2,4 km/h (1 Bft)
19.01.2008 00:00 21,2 C 4,8 C 93 % 1018 hPa 1,7 l/m 1,4 km/h (1 Bft)
19.01.2008 01:00 21,2 C 4,0 C 94 % 1017 hPa 0,7 l/m 2,3 km/h (1 Bft)
19.01.2008 02:00 21,0 C 4,0 C 96 % 1017 hPa 0,3 l/m 0,7 km/h (0 Bft)
19.01.2008 03:00 20,9 C 4,1 C 96 % 1017 hPa 1,7 l/m 0,9 km/h (0 Bft)
19.01.2008 04:00 20,9 C 4,1 C 96 % 1017 hPa 0,0 l/m 3,9 km/h (1 Bft)
19.01.2008 05:00 20,9 C 4,3 C 96 % 1017 hPa 0,0 l/m 1,5 km/h (1 Bft)
19.01.2008 06:00 21,2 C 4,8 C 96 % 1017 hPa 0,3 l/m 2,4 km/h (1 Bft)
19.01.2008 07:00 21,0 C 5,8 C 97 % 1017 hPa 0,3 l/m 5,6 km/h (1 Bft)
19.01.2008 08:00 21,7 C 7,0 C 95 % 1018 hPa 0,0 l/m 6,9 km/h (2 Bft)
19.01.2008 09:00 21,8 C 8,1 C 88 % 1019 hPa 0,0 l/m 17,7 km/h (3 Bft)
19.01.2008 10:00 21,7 C 8,3 C 90 % 1019 hPa 0,3 l/m 14,0 km/h (3 Bft)
19.01.2008 11:00 21,6 C 8,9 C 82 % 1019 hPa 0,0 l/m 19,1 km/h (3 Bft)
19.01.2008 12:00 21,4 C 9,3 C 82 % 1019 hPa 0,0 l/m 19,2 km/h (3 Bft)
19.01.2008 13:00 21,4 C 9,7 C 79 % 1019 hPa 0,0 l/m 19,7 km/h (3 Bft)
19.01.2008 14:00 21,6 C 10,5 C 75 % 1018 hPa 0,0 l/m 30,6 km/h (5 Bft)
19.01.2008 15:00 20,3 C 10,3 C 75 % 1019 hPa 0,0 l/m 26,0 km/h (4 Bft)
19.01.2008 16:00 20,6 C 10,1 C 77 % 1019 hPa 0,0 l/m 20,3 km/h (4 Bft)
19.01.2008 17:00 20,8 C 9,7 C 78 % 1020 hPa 0,0 l/m 15,2 km/h (3 Bft)
19.01.2008 18:00 21,2 C 9,5 C 77 % 1020 hPa 0,0 l/m 14,4 km/h (3 Bft)
19.01.2008 19:00 21,8 C 9,5 C 75 % 1021 hPa 0,0 l/m 21,9 km/h (4 Bft)
19.01.2008 20:00 21,8 C 9,2 C 74 % 1021 hPa 0,0 l/m 24,7 km/h (4 Bft)
19.01.2008 21:00 21,7 C 8,6 C 75 % 1021 hPa 0,0 l/m 20,2 km/h (4 Bft)
19.01.2008 22:00 21,7 C 8,5 C 75 % 1021 hPa 0,0 l/m 16,4 km/h (3 Bft)
19.01.2008 23:00 21,4 C 8,7 C 73 % 1021 hPa 0,0 l/m 15,1 km/h (3 Bft)
20.01.2008 00:00 21,2 C 8,6 C 73 % 1021 hPa 0,0 l/m 17,1 km/h (3 Bft)
20.01.2008 01:00 21,1 C 8,3 C 76 % 1021 hPa 0,0 l/m 10,2 km/h (2 Bft)
20.01.2008 02:00 21,0 C 7,8 C 81 % 1021 hPa 0,0 l/m 0,9 km/h (0 Bft)
20.01.2008 03:00 20,9 C 7,0 C 84 % 1021 hPa 0,0 l/m 0,0 km/h (0 Bft)
20.01.2008 04:00 20,8 C 7,0 C 83 % 1021 hPa 0,0 l/m 1,0 km/h (0 Bft)
20.01.2008 05:00 20,8 C 6,4 C 85 % 1021 hPa 0,0 l/m 0,0 km/h (0 Bft)
20.01.2008 06:00 21,1 C 6,5 C 83 % 1021 hPa 0,0 l/m 0,4 km/h (0 Bft)
20.01.2008 07:00 21,3 C 6,5 C 82 % 1021 hPa 0,0 l/m 0,9 km/h (0 Bft)
20.01.2008 08:00 21,4 C 6,6 C 81 % 1021 hPa 0,0 l/m 7,8 km/h (2 Bft)
20.01.2008 09:00 21,9 C 7,6 C 76 % 1021 hPa 0,0 l/m 15,2 km/h (3 Bft)
20.01.2008 10:00 21,8 C 8,1 C 74 % 1021 hPa 0,0 l/m 22,5 km/h (4 Bft)
20.01.2008 11:00 21,6 C 8,6 C 72 % 1021 hPa 0,0 l/m 34,4 km/h (5 Bft)
20.01.2008 12:00 21,6 C 9,2 C 73 % 1020 hPa 0,0 l/m 28,9 km/h (5 Bft)
20.01.2008 13:00 21,9 C 9,6 C 72 % 1020 hPa 0,0 l/m 25,7 km/h (4 Bft)
20.01.2008 14:00 19,1 C 10,2 C 69 % 1019 hPa 0,0 l/m 29,3 km/h (5 Bft)
20.01.2008 15:00 21,0 C 10,4 C 69 % 1019 hPa 0,0 l/m 19,1 km/h (3 Bft)
20.01.2008 16:00 21,9 C 10,1 C 70 % 1019 hPa 0,0 l/m 13,6 km/h (3 Bft)
20.01.2008 17:00 21,3 C 8,9 C 72 % 1018 hPa 0,0 l/m 12,6 km/h (3 Bft)
20.01.2008 18:00 21,9 C 7,6 C 75 % 1018 hPa 0,0 l/m 12,0 km/h (2 Bft)
20.01.2008 19:00 21,9 C 7,1 C 77 % 1018 hPa 0,0 l/m 10,9 km/h (2 Bft)
20.01.2008 20:00 21,9 C 6,8 C 79 % 1018 hPa 0,0 l/m 11,6 km/h (2 Bft)
20.01.2008 21:00 21,9 C 6,8 C 79 % 1019 hPa 0,0 l/m 10,0 km/h (2 Bft)
20.01.2008 22:00 21,8 C 6,5 C 80 % 1019 hPa 0,0 l/m 13,1 km/h (3 Bft)
20.01.2008 23:00 21,6 C 6,6 C 80 % 1018 hPa 0,0 l/m 14,5 km/h (3 Bft)
Min-Datum _ 16.01.08 17.01.08 20.01.08 16.01.08 - 14.01.08
_ Min-Zeit 20:31 18:14 14:48 03:36 - 02:34
Minimum _ 14,7 C -2,3 C 66 % 996 hPa - 0,0 km/h (0 Bft)
Max-Datum _ 17.01.08 20.01.08 15.01.08 20.01.08 18.01.08 19.01.08
_ Max-Zeit 21:38 16:33 20:03 01:02 04:05 14:47
Maximum _ 22,5 C 12,0 C 97 % 1022 hPa 2,1 l/m 39,2 km/h
W (6 Bft)
Durchschnitt _ 21,2 C 3,2 C 91 % 1011 hPa #14,7 l/m 7,7 km/h (2 Bft)